Location: *
(37.5724°S, 58.0067°E)
Time: 10:14:55
(UTC+00:00)

Cosmos 1726 - Pass Details

Date: 23 January 2021
Orbit: 480 x 498 km, 82.5° (Epoch: 25 February)

Event Time Altitude Azimuth Distance (km) Brightness Sun altitude
Rises 23:45:52 0° 183° (S) 2,589 6.3 -15.4°
Reaches altitude 10° 23:48:01 10° 179° (S) 1,702 5.4 -15.1°
Maximum altitude 23:51:41 58° 99° (E) 583 2.7 -14.5°
Drops below altitude 10° 23:55:20 10° 19° (NNE) 1,686 4.6 -14.0°
Sets 23:57:27 0° 14° (NNE) 2,561 5.5 -13.6°
